Flag for Canada Weather past 2 weeks in Chilliwack, British Columbia, Canada

Now
51 °F

Cool.


Feels Like: 48 °F
Forecast: 50 / 58 °F
Wind: 7 mph from North

Location: Agassiz

Current Time: Oct 25, 2014 at 3:14:45 AM

Latest Report: Oct 25, 2014 at 2:00 AM


Visibility: N/A

Pressure: 29.77 "Hg

Humidity: 80%

Dew point: 44 °F

Location of ChilliwackLocation

Historic Weather in Chilliwack — Graph

°F

Chilliwack temperature yesterday

Maximum temperature yesterday: 54 °F (at 2:00 PM)
Minimum temperature yesterday: 44 °F (at 7:00 AM)
Average temperature yesterday: 50 °F

Past Weeks' High & Low Weather Summary

 TemperatureHumidityPressure
High65 °F (Oct 19, 3:00 PM)100% (Oct 10, 8:00 AM)30.23 "Hg (Oct 10, 8:00 AM)
Low44 °F (Oct 24, 7:00 AM)65% (Oct 16, 3:00 PM)29.52 "Hg (Oct 22, 8:00 PM)
Average55 °F88%29.85 "Hg
* Reported Oct 10 2:00 AM — Oct 25 2:00 AM, Chilliwack, Weather by CustomWeather, © 2014

Note: Actual official high and low records may vary slightly from our data, if they occured in-between our weather recording intervals... More about our weather records

Advertising

Chilliwack weather history for previous 24 hours

 ConditionsComfort  
Time TempWeatherWind HumidityBarometerVisibility
2:00 AM
Oct 25
51 °FCool.7 mph80%29.77 "HgN/A
1:00 AM52 °FCool.8 mph77%29.80 "HgN/A
12:00 AM53 °FCool.3 mph69%29.84 "HgN/A
11:00 PM
Oct 24
53 °FCool.7 mph70%29.87 "HgN/A
10:00 PM53 °FCool.6 mph70%29.88 "HgN/A
9:00 PM53 °FCool.3 mph75%29.90 "HgN/A
8:00 PM51 °FCool.1 mph84%29.92 "HgN/A
7:00 PM51 °FCool.2 mph84%29.93 "HgN/A
6:00 PM49 °FCool.1 mph90%29.94 "HgN/A
5:00 PM53 °FCool.5 mph78%29.97 "HgN/A
4:00 PM54 °FCool.6 mph76%30.00 "HgN/A
3:00 PM54 °FCool.6 mph76%30.01 "HgN/A
2:00 PM54 °FCool.3 mph73%30.04 "HgN/A
1:00 PM54 °FCool.7 mph69%30.06 "HgN/A
12:00 PM53 °FCool.3 mph67%30.08 "HgN/A
11:00 AM51 °FCool.6 mph75%30.10 "HgN/A
10:00 AM49 °FCool.13 mph76%30.10 "HgN/A
9:00 AM47 °FCool.15 mph83%30.09 "HgN/A
8:00 AM46 °FCool.8 mph84%30.08 "HgN/A
7:00 AM44 °FQuite cool.1 mph91%30.06 "HgN/A
6:00 AM44 °FQuite cool.1 mph95%30.05 "HgN/A
5:00 AM46 °FCool.2 mph92%30.04 "HgN/A
4:00 AM47 °FCool.2 mph94%30.04 "HgN/A
3:00 AM46 °FCool.2 mph97%30.03 "HgN/A
Weather by CustomWeather, © 2014

See weather overviewHow to use our weather pages